軌道要素
The following orbital elements are taken from MPC 54169:
Epoch 2008 May 14.0 TT = JDT 2454600.5
T 2008 May 28.4487 TT MPC
q 1.230478 (2000.0) P Q
n 0.1867951 Peri. 253.2769 -0.9318848 +0.3605578
a 3.030812 Node 307.8397 -0.3106253 -0.8498887
e 0.594010 Incl. 2.8930 -0.1873568 -0.3843010
P 5.28
From 52 observations 1982-2003, mean residual 0".9. Nongravitational
parameters A1 = +0.30, A2 = +0.0113.
|